Location: Harwich
(41.7160°N, 69.9939°W)
Time: 06:00:35
(UTC+02:00)

ITAMSAT 1 - Visible Passes

Search period start: 19 September 2024 00:00
Search period end: 29 September 2024 00:00
Orbit: 781 x 795 km, 98.8° (Epoch: 18 September)

Date Brightness Start Highest point End Pass type
(mag) Time Alt. Az. Time Alt. Az. Time Alt. Az.
19 Sep 8.7 02:20:10 26° ENE 02:20:31 26° ENE 02:24:47 10° N visible
19 Sep 9.0 04:00:53 35° WNW 04:00:53 35° WNW 04:04:37 10° NNW visible
20 Sep 9.3 01:49:58 14° ENE 01:50:53 15° ENE 01:53:42 10° NNE visible
20 Sep 8.1 03:30:39 58° NW 03:30:39 58° NW 03:34:52 10° NNW visible
21 Sep 8.0 03:00:25 52° NE 03:00:25 52° NE 03:04:48 10° N visible
21 Sep 10.2 04:41:08 15° WNW 04:41:08 15° WNW 04:42:54 10° NW visible
22 Sep 8.5 02:30:12 31° ENE 02:30:12 31° ENE 02:34:25 10° N visible
22 Sep 9.5 04:10:55 27° WNW 04:10:55 27° WNW 04:13:54 10° NNW visible
23 Sep 9.2 01:59:59 18° ENE 02:00:13 18° ENE 02:03:35 10° NNE visible
23 Sep 8.7 03:40:41 43° NW 03:40:41 43° NW 03:44:17 10° NNW visible
24 Sep 8.2 03:10:27 49° N 03:10:27 49° N 03:14:18 10° N visible
24 Sep 10.5 04:51:10 12° WNW 04:51:10 12° WNW 04:51:46 10° WNW visible
25 Sep 8.5 02:40:14 34° NE 02:40:14 34° NE 02:44:01 10° N visible
25 Sep 9.9 04:20:56 20° WNW 04:20:56 20° WNW 04:23:08 10° NW visible
26 Sep 9.1 02:10:00 21° NE 02:10:00 21° NE 02:13:21 10° NNE visible
26 Sep 9.2 03:50:42 32° NW 03:50:42 32° NW 03:53:39 10° NNW visible
27 Sep 9.6 01:39:47 12° ENE 01:39:57 12° ENE 01:41:42 10° NE visible
27 Sep 8.7 03:20:29 40° N 03:20:29 40° N 03:23:46 10° NNW visible
28 Sep 8.6 02:50:15 34° NNE 02:50:15 34° NNE 02:53:34 10° N visible
28 Sep 10.3 04:30:57 15° NW 04:30:57 15° NW 04:32:17 10° NW visible
